Location: Roanoke
(37.2710°N, 79.9420°W)
Time: 22:07:54
(UTC-05:00)

Courier 1B Rocket - Pass Details

Date: 18 November 2019
Orbit: 920 x 1202 km, 28.2° (Epoch: 10 December)

Event Time Altitude Azimuth Distance (km) Brightness Sun altitude
Rises 19:31:20 0° 265° (W) 4,011 9.5 -28.5°
Reaches altitude 10° 19:34:26 10° 255° (WSW) 3,079 8.5 -29.1°
Maximum altitude 19:41:01 31° 196° (SSW) 1,938 6.6 -30.4°
Enters shadow 19:43:22 27° 167° (SSE) 2,126 6.6 -30.9°
Drops below altitude 10° 19:47:42 10° 138° (SE) 3,123 - -31.7°
Sets 19:50:53 0° 128° (SE) 4,076 - -32.4°
